Wind_Speed
14 15 15 16 16 16 16 16 16 16 14 14 12 11 11 11 12 11 11 11 11 12 11 11 11 12 12 11 12 11 10 10 10 13 14 8 6 11 11 9 10 12 10 10 13 12 11 11 10 11 12 15 14 10 6 5 6 5 1 1 1 2 2 2 3 4 2 6 7 7 7 4 9 10 11 5 3 12 20 24 28 28 28 30 33 37 36 34
14 15 15 15 16 16 16 16 16 16 15 15 14 13 12 12 12 12 12 11 11 11 11 11 10 11 12 11 12 12 12 11 12 15 10 4 7 11 11 9 9 13 13 13 15 15 14 12 10 11 12 13 11 10 7 6 7 4 0 0 1 1 1 3 3 4 2 10 12 7 3 5 8 6 6 7 6 8 13 23 31 32 31 34 38 36 34 35
15 15 15 16 16 16 17 17 17 17 16 15 14 14 13 13 13 13 12 12 11 11 11 11 10 11 11 11 12 13 13 13 13 12 4 7 9 8 10 9 9 13 14 14 15 16 15 14 11 11 13 13 10 14 10 7 6 4 2 0 1 2 3 4 5 6 5 16 14 8 6 5 5 3 6 4 7 8 11 19 27 32 36 38 38 36 35 35
17 17 17 17 16 16 16 16 17 17 16 16 15 14 14 14 13 13 13 12 11 10 10 10 10 10 10 11 11 12 13 11 7 2 1 4 6 6 9 9 10 13 13 14 15 14 13 13 11 12 13 10 11 15 10 10 9 5 3 0 1 2 3 4 6 6 8 15 13 12 9 5 7 7 7 5 6 7 13 23 31 35 39 39 38 37 35 34
18 18 19 19 18 18 17 17 17 17 17 16 15 14 14 14 14 14 13 12 11 10 10 9 10 10 9 10 11 11 9 6 1 3 2 1 1 2 6 8 10 12 13 14 15 15 14 13 13 14 12 7 10 11 7 13 11 3 3 5 4 4 2 4 7 8 10 13 11 12 9 7 10 7 8 10 4 2 17 31 36 38 39 38 37 36 35 34
17 18 18 19 19 19 19 18 18 17 17 16 14 14 13 14 14 13 12 12 11 10 10 9 9 10 9 9 10 10 5 1 4 2 1 2 4 1 4 8 10 13 15 16 17 16 14 14 14 14 11 7 8 8 8 15 12 2 3 8 8 8 3 3 6 8 12 12 9 8 10 13 12 7 7 8 2 4 25 36 36 38 38 37 35 33 33 32
17 17 17 18 18 18 18 18 19 18 17 16 14 13 13 13 13 12 11 11 10 10 9 9 9 9 8 8 9 8 8 7 3 1 3 2 6 4 4 9 13 16 19 19 19 14 12 14 15 15 10 7 9 9 12 16 15 8 4 8 12 9 5 6 6 6 11 10 9 9 11 11 10 9 10 11 6 10 29 35 34 37 35 34 34 31 31 30
16 16 16 17 17 17 17 17 18 18 17 16 14 12 12 13 12 11 11 10 10 10 10 9 9 9 8 6 6 7 10 9 2 2 5 5 8 6 5 11 17 20 23 22 19 13 11 13 16 15 8 7 9 7 14 13 10 11 6 9 14 13 11 12 10 10 12 8 9 12 10 8 9 10 11 10 9 14 29 35 33 34 33 32 32 30 30 29
16 16 16 16 17 16 16 16 16 17 16 14 13 12 12 13 11 10 10 10 10 10 10 9 9 9 7 5 4 4 7 5 0 2 6 8 10 8 7 13 20 24 25 22 17 12 12 13 15 14 8 9 11 3 15 11 5 12 8 10 17 18 17 16 14 13 12 8 10 11 7 7 7 6 6 5 9 21 32 34 33 33 31 30 30 30 29 28
17 17 17 17 17 17 17 16 16 16 14 13 11 11 12 12 10 9 10 10 10 10 8 8 8 7 6 3 0 1 3 3 2 5 8 9 11 10 8 15 22 26 25 21 15 12 14 14 12 13 10 11 14 7 19 10 5 8 4 5 16 15 14 17 15 14 13 8 8 9 5 4 5 2 3 6 14 28 34 31 32 32 30 29 29 29 29 28
18 17 17 18 18 18 18 17 16 15 13 11 10 11 12 11 9 9 9 9 9 8 7 7 7 7 5 3 4 4 3 3 3 5 7 7 9 9 9 18 22 26 25 17 11 9 13 14 12 12 8 5 10 7 16 11 11 11 1 6 17 15 13 17 13 14 14 7 8 13 6 4 4 2 3 9 18 29 34 31 30 30 29 29 28 28 29 28
17 17 17 18 19 19 19 18 16 14 11 9 9 10 11 9 8 9 8 8 8 7 6 6 6 6 5 7 10 7 4 2 5 8 8 4 4 5 11 18 22 25 21 13 8 7 11 13 13 13 8 6 8 5 5 6 13 18 10 8 14 14 11 11 9 12 11 5 10 16 8 4 2 2 6 12 20 26 33 31 30 29 30 30 28 28 28 27
17 17 17 18 19 20 20 19 16 12 9 8 8 10 10 9 8 8 7 7 7 5 5 5 5 5 4 7 10 6 3 2 3 6 7 2 4 9 13 13 19 22 15 10 9 8 10 12 13 14 12 10 7 7 11 4 10 16 14 9 8 8 6 6 8 12 10 6 13 11 3 2 3 7 7 11 19 25 30 30 30 29 29 30 28 28 27 27
17 17 18 19 20 21 21 19 16 12 8 7 8 9 8 8 7 6 5 5 4 4 4 4 4 4 5 7 6 5 3 2 6 5 3 2 7 11 12 9 14 18 12 10 10 8 10 11 11 13 12 10 9 12 14 6 9 11 9 8 5 4 5 5 7 13 9 4 8 5 2 4 6 7 4 5 14 24 28 27 29 28 28 30 28 26 27 26
16 17 18 20 21 21 21 20 16 11 7 6 8 8 7 6 6 4 4 4 4 4 2 2 3 2 6 10 5 4 5 6 7 7 5 6 9 10 12 11 12 12 10 9 9 8 9 10 12 10 9 9 10 9 7 4 4 5 5 4 2 3 5 3 3 8 7 4 5 1 3 4 6 6 5 6 5 19 26 25 26 27 28 29 26 25 26 25
16 17 18 20 21 21 21 19 15 9 5 6 7 6 5 5 3 2 3 4 4 3 0 1 4 3 5 7 4 6 10 10 8 8 9 9 11 11 11 13 12 11 11 10 9 8 6 9 9 7 7 7 6 5 4 5 3 4 5 4 2 5 6 3 3 2 3 6 4 2 2 3 3 7 8 6 1 11 20 25 25 27 29 28 25 25 26 24
17 18 19 20 20 20 20 18 13 7 4 6 7 5 5 4 2 1 2 4 4 3 3 1 3 7 6 4 4 8 11 11 9 10 11 11 11 10 11 13 13 13 12 9 9 6 6 8 5 3 6 5 4 4 3 4 4 4 4 3 3 7 6 5 2 2 4 8 4 2 3 2 1 6 7 4 1 4 11 24 25 25 30 28 25 25 26 23
18 19 20 20 20 19 18 16 10 4 4 6 6 6 5 5 4 3 4 5 4 4 4 4 3 4 6 9 10 11 12 12 10 11 11 11 11 10 11 13 12 13 11 7 8 8 6 7 5 2 4 3 4 4 4 6 6 3 6 4 2 4 3 4 4 6 9 5 6 7 3 2 3 5 1 5 2 3 4 18 21 24 30 28 25 26 27 24
19 20 21 21 20 19 17 13 7 3 4 6 7 7 7 7 6 5 6 6 4 3 2 7 13 4 5 9 12 12 11 12 12 11 11 10 11 12 11 11 11 12 10 5 8 10 7 5 5 3 4 4 6 6 7 10 4 10 12 7 2 2 1 6 6 10 11 6 6 9 6 6 6 6 6 9 4 4 4 10 12 21 30 28 24 26 28 23
19 20 21 21 20 19 16 11 5 3 5 6 7 7 7 7 4 2 6 10 11 10 8 10 16 14 12 6 7 8 10 12 11 11 11 10 11 14 13 11 11 11 7 4 7 12 10 4 4 5 6 7 9 10 12 13 4 12 15 10 5 3 4 9 9 12 12 6 5 9 10 8 7 8 6 6 5 3 6 9 7 14 25 28 25 26 27 22
18 20 21 21 20 18 14 9 4 4 5 5 5 6 7 8 5 4 4 11 16 15 15 13 14 22 23 13 7 11 13 11 10 10 11 12 11 11 13 13 8 6 6 8 8 11 10 4 5 8 9 10 11 11 12 13 7 6 11 11 7 3 3 8 13 14 11 4 4 10 13 8 7 6 2 3 6 3 5 9 7 8 15 24 25 28 28 21
18 19 20 20 19 17 14 9 6 6 5 3 4 7 8 10 10 10 9 10 15 17 18 17 18 23 23 16 10 14 13 10 10 10 11 14 13 9 13 12 6 4 7 10 6 6 7 4 7 10 11 12 12 11 11 12 9 4 8 10 7 3 1 5 12 13 7 3 4 9 11 5 4 5 3 3 4 5 6 9 9 7 9 16 21 28 30 23
17 19 20 20 18 16 13 9 6 5 2 1 5 8 8 11 11 12 11 9 13 16 19 19 20 18 8 3 10 13 9 8 9 13 13 14 14 13 13 9 6 6 7 8 6 4 4 5 10 11 10 12 12 12 11 10 8 5 7 8 8 9 7 4 9 11 6 4 7 9 8 3 2 3 3 2 4 5 4 8 11 9 9 11 14 22 28 27
17 18 18 19 18 16 13 9 6 5 3 4 6 6 8 8 9 13 12 8 9 11 16 17 15 13 6 7 8 8 11 9 10 14 14 14 15 13 11 10 7 6 6 9 10 7 5 8 14 13 10 11 11 11 10 7 6 6 5 8 9 14 11 6 9 11 5 4 9 11 6 1 1 2 3 2 5 5 5 8 10 10 12 12 12 15 21 28
16 17 17 18 18 15 12 8 6 8 10 12 8 6 10 8 9 13 10 6 6 7 13 14 12 12 9 9 6 7 11 12 12 16 17 16 16 10 9 11 8 5 8 10 11 8 7 10 15 13 11 10 10 9 10 8 5 5 5 10 12 12 12 10 12 9 5 2 6 8 4 1 3 3 4 2 4 6 7 8 8 10 13 12 13 14 14 24
16 17 17 18 18 14 11 10 8 10 13 13 9 7 9 9 11 12 5 3 3 3 6 9 10 8 8 10 9 5 6 9 11 16 18 16 18 11 6 8 7 6 9 9 7 4 6 10 11 11 11 11 10 8 9 9 4 4 5 14 14 13 13 14 15 9 4 3 10 11 3 3 3 3 5 4 4 6 5 6 6 10 14 12 16 15 10 19
15 17 17 17 16 13 13 12 9 10 11 10 10 8 7 9 10 7 2 2 2 2 4 7 7 5 6 9 10 4 0 8 13 16 17 15 17 14 7 4 5 5 8 6 4 3 6 11 9 10 11 9 8 6 8 9 5 3 6 13 12 14 15 14 16 10 5 6 9 12 4 5 3 2 4 5 5 4 3 4 5 9 14 14 18 18 10 16
15 16 16 16 14 12 12 11 8 8 9 11 13 9 6 9 8 4 2 1 0 1 3 4 3 1 5 8 12 9 4 11 10 12 15 14 15 12 7 6 5 4 8 6 4 5 7 10 9 8 10 6 7 8 8 7 4 2 4 8 8 13 15 15 13 6 3 6 5 9 6 5 2 3 5 6 6 5 5 5 5 9 14 15 18 19 11 11
15 15 14 13 11 10 10 8 8 8 7 11 14 8 4 7 6 2 2 1 1 1 2 4 4 2 5 8 12 14 8 8 5 10 15 11 14 12 7 8 9 7 9 10 7 5 6 11 12 7 6 5 5 5 4 2 2 4 3 5 7 11 11 11 6 3 3 4 4 9 9 5 2 3 6 6 5 5 5 4 5 8 14 15 17 19 12 9
14 14 12 11 10 10 10 7 8 10 8 9 11 5 5 9 5 2 2 1 1 3 3 4 4 4 6 6 7 11 9 5 7 14 14 7 13 15 9 10 10 6 8 11 9 7 7 14 15 8 2 3 4 2 4 6 4 5 6 5 6 9 9 6 4 4 4 1 6 13 10 7 4 4 6 5 4 7 6 4 4 8 13 16 18 18 14 13
12 12 11 10 9 9 10 7 7 10 8 6 7 6 8 7 2 2 2 1 2 2 3 3 4 4 6 5 4 7 7 3 7 7 5 3 8 11 5 7 6 3 6 7 7 9 9 9 8 4 0 0 3 4 7 9 7 4 5 4 3 5 7 5 2 3 2 2 7 13 8 8 3 3 6 4 4 8 7 5 6 7 12 17 19 19 16 17
10 11 9 8 9 8 8 5 4 7 6 3 8 9 7 2 1 2 1 2 2 1 3 4 7 6 7 7 6 8 5 3 7 4 3 3 4 5 4 4 3 2 4 5 4 6 7 3 4 6 2 6 4 2 4 6 5 3 4 4 3 2 4 3 0 2 3 4 5 13 9 6 2 1 5 7 7 7 8 11 13 12 15 17 17 18 16 17
8 10 8 7 9 7 5 5 4 4 4 4 10 9 3 1 1 3 3 3 1 3 5 3 8 6 7 7 6 8 7 4 8 6 5 5 4 4 7 9 8 4 2 4 2 4 3 3 3 6 6 8 6 1 1 2 2 2 3 4 4 3 3 2 1 2 4 5 3 11 10 4 1 2 2 7 9 8 10 14 18 17 19 18 17 17 14 15
7 9 10 10 10 5 3 6 5 3 3 6 8 4 2 2 2 5 6 4 2 4 5 3 9 6 7 7 5 7 7 5 9 7 5 6 4 5 6 9 11 5 1 4 1 3 4 1 3 3 5 8 7 2 2 3 3 5 4 4 4 3 4 3 4 4 4 5 5 10 7 3 5 3 3 7 10 11 13 12 12 13 16 17 18 18 15 15
9 10 12 13 10 2 4 7 5 3 3 8 5 2 2 1 2 5 3 3 5 3 3 1 5 4 5 6 8 6 1 2 7 5 5 5 3 4 5 5 8 2 2 3 3 0 4 2 6 5 5 10 9 3 3 3 3 5 3 2 3 4 4 3 4 7 6 4 4 4 3 2 4 2 1 5 9 10 15 15 11 10 9 10 12 12 11 12
11 12 12 13 10 2 3 7 5 2 5 8 2 1 3 2 2 5 3 3 6 6 7 5 3 3 4 3 4 3 4 3 2 2 4 5 3 1 5 2 0 3 5 1 3 2 2 2 8 10 7 8 6 3 5 3 2 4 3 0 3 4 3 2 2 5 5 4 1 1 5 6 5 5 5 3 6 6 11 15 14 13 13 13 11 7 7 9
11 13 13 14 11 5 3 3 2 2 6 7 1 2 5 2 3 6 4 7 9 6 6 5 3 1 2 3 0 2 2 1 4 4 3 5 3 5 2 6 10 8 6 4 2 1 2 3 7 12 9 6 4 4 7 2 3 1 2 3 5 4 2 1 1 2 1 4 1 4 12 11 6 4 6 8 8 8 9 12 12 14 17 17 15 11 4 5
12 12 14 14 6 5 6 3 4 6 8 6 1 4 6 1 1 5 5 8 10 6 5 4 4 5 4 3 2 3 3 2 3 4 0 3 1 8 7 7 11 13 11 9 4 2 4 3 1 4 4 3 3 0 4 6 4 3 3 4 2 1 2 0 2 2 1 5 3 1 6 7 3 4 10 12 10 10 11 10 10 13 17 16 16 17 15 10
12 11 11 6 4 7 6 5 7 9 7 4 1 2 5 2 3 5 5 7 9 6 5 3 3 3 5 5 5 6 2 2 3 2 2 3 2 8 11 7 7 12 15 12 4 4 4 2 1 1 0 2 2 2 0 4 4 3 4 4 1 2 2 1 2 3 1 5 5 2 2 1 1 0 7 12 11 10 11 10 10 14 17 18 18 18 18 18
11 11 10 2 5 3 4 8 10 8 4 2 3 3 3 5 5 5 4 6 6 5 4 4 3 1 1 3 1 6 6 5 3 1 3 4 5 8 12 9 6 9 13 11 6 4 3 2 3 2 3 3 1 1 3 3 1 1 2 3 2 2 2 2 2 4 3 4 6 5 1 1 1 2 1 7 9 10 11 10 12 16 18 20 20 18 16 17
10 7 5 1 1 0 6 11 8 4 2 2 5 2 4 5 7 4 3 5 5 4 5 4 4 2 2 3 2 4 5 5 3 5 4 5 7 5 8 11 9 9 9 7 5 4 3 2 1 3 3 3 3 4 5 4 2 1 1 3 4 4 2 2 4 3 1 4 5 7 5 1 1 2 0 2 7 12 15 16 16 18 21 20 20 19 16 15
8 5 3 0 2 4 9 9 3 3 2 1 2 2 3 4 5 5 5 7 8 3 5 1 4 5 4 1 3 2 2 4 6 6 2 4 7 5 7 14 14 11 7 2 4 7 5 2 1 2 3 5 7 8 6 2 2 3 2 3 4 2 2 2 1 1 4 6 5 5 6 2 1 1 1 3 6 17 19 20 19 19 21 21 20 20 17 15
9 12 8 2 3 7 9 5 0 3 1 2 1 1 4 5 4 4 3 5 6 3 3 1 2 3 1 2 2 3 6 4 4 3 1 3 6 5 9 15 14 10 7 3 4 9 8 2 2 4 2 3 3 3 3 2 3 3 3 3 2 2 4 4 3 3 4 5 6 5 4 3 2 4 3 2 7 21 22 19 21 21 21 22 22 21 18 16
15 17 10 3 3 7 8 2 1 2 2 1 1 1 1 4 6 7 5 5 5 4 3 3 2 1 2 2 4 4 4 2 1 1 2 3 4 5 9 13 11 7 5 2 2 6 5 2 2 4 3 4 5 5 5 5 4 2 4 3 2 5 6 4 1 3 4 3 7 6 3 3 5 8 6 5 6 16 22 22 22 21 21 22 23 22 20 18
14 12 9 3 5 11 7 3 3 1 3 2 1 1 3 2 3 5 6 4 5 5 2 3 4 1 4 6 3 1 3 3 1 1 3 3 2 5 8 9 9 6 5 4 6 6 2 1 2 4 3 3 2 0 2 4 2 2 5 4 3 9 10 5 3 5 3 1 4 7 6 4 7 9 8 7 7 12 20 23 23 22 22 23 24 22 19 19
7 6 7 3 3 7 5 4 3 5 3 2 2 1 1 4 4 1 4 3 3 4 3 2 2 3 3 3 3 2 4 4 3 2 1 2 1 4 6 6 8 7 8 9 11 7 1 1 3 6 4 1 3 3 3 4 1 1 6 4 5 11 9 4 4 4 4 3 3 7 13 12 11 11 8 7 9 11 15 20 22 23 23 23 25 23 19 19
5 4 3 3 8 7 2 4 5 6 2 2 2 1 2 3 4 3 4 2 1 3 2 3 4 2 4 2 2 3 6 2 5 3 2 4 2 2 5 5 8 8 9 10 12 7 1 3 5 3 1 3 3 4 7 5 5 7 8 5 4 7 7 5 5 6 7 6 4 6 15 16 13 15 13 10 9 10 12 17 20 23 23 24 25 24 21 20
5 8 9 5 4 5 5 7 8 4 3 2 1 4 2 4 3 4 4 3 4 4 3 1 2 3 7 7 3 4 7 6 2 4 4 2 0 1 3 5 9 11 9 8 10 6 2 3 6 6 4 5 3 5 7 6 8 9 8 5 5 5 6 4 4 6 7 8 7 8 12 14 12 14 14 11 11 13 16 20 22 23 24 24 25 24 21 19
11 11 13 13 9 5 3 3 5 3 6 4 3 3 4 5 5 5 4 4 5 3 4 2 3 3 4 5 3 4 4 3 3 4 4 3 3 2 2 4 9 13 11 6 6 5 2 2 6 8 7 5 2 3 5 7 7 7 6 7 8 8 6 4 3 7 9 11 13 12 12 10 8 10 12 13 19 21 21 21 21 22 23 23 24 23 21 19
15 10 12 17 14 7 3 4 5 2 3 1 1 3 3 5 6 6 6 7 4 2 2 3 5 5 3 5 5 5 5 2 1 3 3 4 5 3 3 3 4 9 9 4 3 4 3 3 5 5 5 6 5 3 3 4 4 5 6 6 6 6 6 5 5 8 9 11 12 13 14 8 5 12 16 18 24 24 19 17 18 21 24 24 24 22 20 19
13 7 9 13 8 5 5 5 4 1 2 1 1 1 2 5 5 4 4 6 7 6 5 5 6 6 7 9 8 7 6 5 5 6 6 5 4 2 2 3 3 5 5 3 3 3 3 2 4 3 3 4 6 4 3 3 3 4 5 4 3 2 3 4 4 4 6 11 13 12 10 6 7 14 17 18 21 21 18 20 21 21 24 24 23 21 19 18
14 5 8 11 5 5 6 4 2 2 2 2 3 3 4 5 6 6 3 3 5 7 7 7 6 3 5 8 7 7 8 9 7 7 7 7 7 5 3 4 3 4 4 3 3 2 2 2 3 2 1 2 6 7 4 2 2 4 2 3 3 1 2 3 1 3 7 10 10 8 7 9 12 14 14 13 16 17 17 19 22 23 25 25 22 19 17 16
Wind_Direction
353 352 350 348 346 344 342 340 338 336 335 332 332 330 329 327 326 328 326 326 323 319 316 314 312 308 308 309 304 303 299 292 284 272 266 262 206 202 210 207 200 196 196 195 179 165 180 184 182 206 231 237 215 186 196 208 184 177 123 274 237 106 184 214 174 190 180 122 138 215 245 120 127 164 168 136 74 119 130 140 136 131 135 137 139 142 144 144
350 349 348 346 344 342 341 339 337 334 332 330 328 327 328 326 326 327 328 329 325 319 315 311 310 305 304 307 306 304 302 299 285 272 263 227 210 199 199 208 196 193 194 190 182 171 183 195 200 208 221 233 200 168 197 193 175 189 174 229 255 100 230 266 190 217 200 129 146 184 205 106 123 164 160 129 141 123 115 132 132 129 133 137 140 146 148 145
345 344 343 342 341 340 339 338 336 333 331 328 326 326 327 326 325 326 327 328 325 320 311 307 305 300 302 305 305 305 307 308 294 284 261 199 219 202 185 193 190 194 192 189 183 173 188 197 199 204 209 225 191 157 175 185 178 194 184 222 294 39 316 267 189 220 167 133 143 153 154 122 103 80 74 120 187 160 137 139 133 129 135 140 145 149 149 148
340 338 338 337 337 337 336 335 334 332 329 326 324 324 325 326 325 325 326 326 324 317 308 303 298 296 300 304 305 305 312 320 306 307 53 197 210 199 183 181 185 194 188 182 179 176 200 212 202 199 209 221 166 152 174 183 175 173 166 192 302 14 315 248 185 197 146 128 132 131 141 129 90 73 99 162 213 170 151 138 133 136 141 144 147 149 149 150
334 333 333 333 333 333 333 332 331 329 328 324 322 323 325 326 326 325 324 323 321 314 306 297 292 293 295 301 302 303 319 349 69 129 52 29 137 186 179 179 183 186 182 175 178 190 214 228 218 203 217 227 150 148 190 188 174 134 160 167 196 224 242 235 198 165 137 125 124 127 132 127 109 103 150 170 231 187 138 134 137 141 143 146 147 149 149 149
331 329 328 329 329 329 330 329 328 326 325 323 320 320 323 325 326 324 321 320 317 312 303 292 290 288 291 301 300 301 308 116 130 128 333 10 3 338 178 180 178 175 176 175 181 198 221 228 227 217 215 219 178 167 180 187 180 141 201 172 186 221 208 229 214 152 140 134 126 129 127 134 129 121 169 178 250 131 131 136 141 142 145 147 147 150 150 149
330 328 326 326 325 325 325 324 324 324 323 321 319 318 322 325 325 322 317 315 314 311 301 292 288 283 290 297 297 301 283 249 207 284 268 313 349 340 214 185 172 172 172 176 182 196 225 221 222 227 220 220 220 192 169 179 186 187 192 172 180 197 175 193 210 132 128 129 125 125 114 131 133 130 172 181 178 131 131 139 141 143 147 147 148 151 151 151
334 331 329 327 325 324 322 320 319 320 321 319 318 317 321 325 322 317 313 310 311 308 301 294 285 281 288 294 307 306 280 265 230 291 261 273 318 322 246 192 171 171 172 173 176 187 220 220 217 226 229 227 235 186 161 169 190 205 179 168 184 178 173 186 184 137 117 111 125 118 103 133 136 139 173 183 179 144 135 140 141 144 147 147 150 151 152 155
341 339 338 336 334 330 325 321 317 318 320 317 315 315 322 326 319 313 310 309 310 305 300 293 282 282 285 293 318 295 278 288 104 276 274 279 294 298 255 197 173 171 172 169 174 199 226 225 220 230 246 253 267 196 168 174 188 215 194 165 182 176 176 177 166 147 124 109 133 119 94 133 131 134 169 193 170 144 138 141 143 147 148 150 152 152 156 158
345 345 345 346 343 340 333 325 319 319 319 316 314 316 323 324 315 311 309 310 310 304 301 290 279 279 281 282 310 262 283 294 239 258 276 273 276 280 240 193 176 172 172 169 179 212 234 228 218 233 246 262 279 204 176 190 157 202 264 136 159 161 166 165 156 147 125 92 121 122 81 107 99 84 177 195 158 140 139 143 146 150 150 153 154 155 160 159
345 347 348 350 348 346 340 330 325 321 317 316 316 320 324 320 312 311 310 310 307 303 299 281 275 273 267 237 219 239 244 253 293 304 297 268 261 269 218 188 178 174 172 170 181 211 233 234 231 241 242 264 286 216 181 183 145 158 288 85 127 139 156 156 147 141 127 75 102 116 75 23 53 24 219 175 158 145 142 145 150 152 152 156 157 160 164 160
344 347 349 350 349 348 344 336 329 322 316 315 318 322 322 316 310 312 312 308 302 298 287 271 271 263 254 248 234 211 162 201 306 308 310 296 242 217 189 182 179 175 169 169 193 225 235 238 248 262 281 310 297 258 208 168 148 156 152 107 126 140 143 143 141 134 120 92 125 115 79 353 36 261 213 160 160 151 143 150 155 155 156 157 158 163 164 160
342 345 347 347 347 347 345 340 333 322 315 316 323 324 317 312 314 317 316 307 299 290 271 261 267 253 249 254 234 199 109 146 230 280 310 335 148 154 162 175 182 176 166 186 214 236 239 240 256 272 290 305 307 300 314 316 174 164 144 128 135 132 119 151 158 126 104 126 144 121 87 259 263 241 207 161 169 158 146 155 159 158 159 156 161 168 165 165
342 342 342 343 343 343 344 341 333 322 314 320 326 321 313 314 317 319 321 316 307 289 273 261 267 258 252 256 228 222 281 193 185 231 283 142 143 148 155 176 187 177 180 221 233 236 238 243 258 273 284 293 304 303 310 301 193 173 146 145 136 119 137 168 157 127 114 162 158 121 119 203 257 254 229 190 180 161 152 158 159 157 156 155 166 170 163 168
342 339 337 337 339 339 340 340 333 322 315 322 325 318 309 319 324 320 324 329 323 295 274 277 288 279 264 278 280 211 206 184 185 206 210 166 160 165 168 183 191 186 199 227 247 252 235 234 243 261 278 277 286 289 293 282 205 177 157 144 82 113 141 143 171 147 130 174 187 109 118 186 271 278 289 300 193 164 158 159 158 155 152 156 169 167 159 164
342 338 334 334 335 336 336 338 334 323 318 324 322 309 299 320 331 320 321 324 330 311 219 24 335 322 277 285 285 205 198 205 209 198 195 181 173 173 171 182 194 203 217 225 244 261 233 230 243 255 267 268 270 258 266 284 242 189 154 121 95 132 144 164 215 240 118 143 189 296 140 151 276 241 248 302 253 178 162 157 159 154 151 158 168 163 156 164
343 339 336 336 336 335 335 336 335 326 321 323 313 296 292 309 301 283 300 293 312 293 238 116 348 303 268 253 247 220 209 214 213 192 192 192 186 182 173 182 195 200 212 225 229 240 222 219 234 264 253 255 264 243 252 269 232 206 149 112 135 139 155 174 166 260 167 143 158 196 162 140 208 201 221 283 273 224 169 159 162 154 150 159 168 158 159 174
344 342 343 344 341 338 337 337 339 331 320 317 303 294 292 290 271 249 253 268 292 285 255 193 169 297 261 232 227 214 204 202 194 187 191 191 190 189 178 182 189 189 200 217 210 211 206 188 173 249 248 225 254 241 203 226 227 169 110 81 92 122 148 181 163 179 173 151 157 161 161 175 122 104 207 248 201 7 166 163 162 154 149 160 169 156 162 182
346 347 348 348 345 342 340 340 343 330 317 312 303 304 300 286 268 252 249 249 244 234 252 189 180 191 299 240 219 209 200 186 177 182 187 185 187 185 177 178 185 186 191 191 188 194 184 160 170 230 248 212 227 232 225 239 220 109 109 100 94 97 174 208 177 160 163 156 160 158 155 168 142 126 195 222 183 59 136 152 153 153 150 162 172 157 165 181
348 349 350 350 350 347 345 348 349 327 319 313 310 308 304 299 277 229 229 239 249 245 249 230 210 235 282 273 198 189 175 170 179 186 186 189 184 174 175 185 194 195 198 183 178 189 185 170 188 211 234 227 226 230 240 255 234 114 118 119 137 157 186 196 167 161 178 170 153 145 140 164 169 161 192 195 166 148 139 127 131 145 150 167 172 157 166 178
348 349 351 353 353 351 354 359 355 335 328 315 313 312 316 331 345 350 279 259 271 265 255 262 247 249 269 276 203 164 153 166 192 192 189 195 182 163 173 189 197 191 214 223 201 189 187 192 210 210 224 234 236 232 238 259 255 140 123 122 135 147 191 180 156 166 186 155 133 129 127 167 180 156 201 173 156 159 127 126 134 128 146 173 171 157 166 176
347 348 351 354 355 356 359 3 360 341 332 315 316 320 333 349 341 328 320 287 282 271 255 264 264 255 266 268 204 158 155 180 196 193 193 198 194 172 166 181 203 177 207 231 217 182 187 211 220 212 218 229 242 242 235 249 253 191 133 128 133 130 234 187 157 165 172 117 133 127 124 165 166 137 209 212 119 108 128 140 153 143 149 175 167 158 166 175
345 347 350 354 356 355 356 0 4 352 351 329 325 328 343 354 341 326 322 293 283 273 247 246 259 257 255 216 161 154 180 197 191 193 194 199 202 188 168 175 217 198 194 220 219 186 179 207 220 220 219 220 236 248 239 239 249 228 158 136 144 164 182 187 162 166 162 130 136 121 108 119 115 130 198 214 93 101 160 152 159 178 175 170 159 160 169 172
342 345 350 356 356 352 349 347 352 2 354 298 312 350 352 343 334 334 329 290 282 272 243 231 244 250 211 147 151 186 214 209 197 189 189 205 205 192 187 191 203 212 207 209 217 222 211 200 202 216 228 219 226 239 240 235 236 239 183 141 149 163 170 175 167 163 133 106 129 117 91 58 224 164 149 157 116 134 205 158 153 186 184 174 162 165 174 171
338 342 345 353 354 350 343 337 342 347 321 287 285 12 359 332 324 335 336 293 276 241 228 219 219 239 223 183 183 223 215 209 207 182 179 207 209 192 202 201 194 217 214 206 217 227 236 218 195 199 224 226 226 226 235 237 213 240 205 146 144 150 153 164 165 151 106 92 166 151 114 65 241 184 150 189 136 151 193 162 152 179 183 189 176 175 189 178
335 338 339 345 351 350 339 335 329 319 310 293 300 356 350 325 325 332 332 285 282 185 185 188 192 216 219 194 192 230 224 204 196 175 176 204 217 220 222 196 184 212 221 212 216 217 237 238 207 188 204 221 231 224 229 227 196 244 182 141 146 146 145 164 165 157 144 167 197 197 160 102 201 203 148 181 181 161 172 153 160 183 188 198 186 190 216 183
333 335 336 339 346 348 342 339 330 318 326 335 339 353 346 322 323 331 310 250 255 153 136 163 174 192 210 183 172 198 245 161 164 166 177 198 217 236 261 216 183 218 239 223 202 209 218 238 232 191 193 213 228 226 228 218 197 219 143 137 157 146 145 176 177 177 184 143 182 203 171 99 166 184 119 158 180 168 164 153 170 196 201 206 199 204 222 181
333 335 338 342 343 343 341 343 345 340 350 352 337 333 339 323 319 324 294 305 326 128 132 161 150 211 221 177 182 210 150 142 158 158 173 197 209 226 254 251 260 268 260 254 208 189 197 230 247 199 190 208 214 216 223 206 195 238 136 143 162 136 150 189 185 183 182 119 160 197 157 91 116 139 145 161 166 171 191 189 185 203 207 210 208 209 215 183
333 336 341 346 342 335 333 332 345 0 10 349 328 319 327 316 317 310 261 340 30 196 142 153 155 222 228 187 202 223 188 160 188 160 164 193 209 221 264 276 289 300 285 276 244 201 189 218 242 229 200 207 196 212 233 191 166 237 224 180 161 134 156 201 191 136 112 108 183 193 162 116 112 152 162 162 166 187 194 190 195 208 209 212 211 211 216 202
330 335 339 342 339 334 331 332 356 5 358 333 326 328 318 305 296 296 266 54 40 185 148 142 165 210 222 193 205 234 230 194 172 170 169 179 201 216 271 292 287 295 291 276 243 241 227 211 226 240 208 162 135 131 259 262 242 210 216 218 187 149 153 210 227 121 118 175 204 196 169 123 132 181 171 164 175 181 170 167 196 203 207 211 211 213 220 212
326 329 329 331 332 327 323 332 8 0 339 320 329 318 302 296 264 314 4 18 327 174 174 173 162 190 208 203 191 220 241 139 122 173 177 141 197 208 251 286 274 262 286 278 226 239 244 208 205 211 108 208 160 171 218 243 258 230 204 217 203 157 148 186 240 82 123 250 194 185 154 91 110 186 179 177 158 157 149 168 201 201 206 213 208 209 221 216
322 319 318 320 322 319 319 339 34 1 344 352 339 313 288 285 216 285 357 294 289 157 237 205 156 180 209 215 204 193 219 135 129 200 203 153 215 215 204 232 223 205 277 282 209 221 247 222 131 123 195 256 237 176 216 233 251 254 216 194 157 144 144 162 147 89 187 256 190 167 131 66 51 119 154 153 132 136 142 169 192 201 204 210 207 204 217 216
310 306 309 309 312 317 333 10 44 6 351 331 323 316 302 33 352 270 258 281 240 164 273 225 148 178 204 209 212 186 205 186 156 196 207 169 193 216 215 228 233 220 234 265 220 171 236 269 155 133 165 223 238 205 210 246 254 260 229 182 142 139 140 140 189 161 198 251 189 135 111 79 107 42 141 132 115 124 138 166 189 201 203 203 200 200 206 211
289 293 309 309 308 316 0 22 48 47 0 311 307 335 18 5 302 270 261 289 285 215 254 176 147 177 202 212 226 191 198 188 163 180 195 175 183 210 223 234 237 238 244 269 289 154 207 239 186 176 137 181 216 242 270 275 237 241 242 165 139 152 152 160 187 177 209 225 146 116 110 149 161 173 192 133 118 130 131 144 172 186 196 193 190 193 191 194
280 291 303 303 302 318 29 17 42 68 328 299 300 44 10 287 285 291 282 319 310 286 295 209 143 168 204 212 218 204 129 142 172 178 186 180 167 192 215 237 231 226 23 297 350 104 231 158 158 177 144 170 188 206 270 273 223 240 263 124 165 195 169 180 194 186 196 185 124 107 94 99 112 72 320 122 116 128 128 124 128 138 157 163 167 178 179 186
282 291 294 298 303 303 4 359 19 46 291 284 284 62 285 223 249 296 333 342 316 328 315 283 157 177 222 199 216 228 43 53 221 238 190 173 83 169 216 245 294 73 68 1 346 8 291 226 168 157 150 185 193 198 219 182 141 242 265 284 262 240 185 204 235 213 193 140 85 138 105 97 90 46 318 214 128 126 131 126 129 130 114 100 104 132 174 193
284 289 284 286 290 260 241 308 315 276 276 277 276 291 282 231 243 286 347 343 316 325 307 274 128 86 256 115 19 270 108 76 294 293 200 163 56 357 345 45 34 34 54 51 19 16 332 276 187 156 152 184 203 242 248 229 87 131 283 321 320 324 329 103 125 259 197 110 150 164 139 146 146 132 205 197 146 139 137 123 127 123 102 87 80 77 93 171
300 301 293 290 280 179 176 218 262 249 248 262 293 289 285 255 309 317 0 336 322 1 3 341 55 16 356 61 346 285 156 136 299 289 70 122 32 352 10 39 26 10 7 17 20 315 322 310 205 134 133 156 151 201 294 315 357 35 331 316 333 1 318 19 125 239 166 112 111 93 135 152 137 141 167 162 145 140 128 111 103 93 84 78 67 57 56 72
319 312 297 296 136 153 184 223 249 246 244 278 331 292 303 1 15 352 3 328 327 22 27 359 69 25 359 30 350 313 266 223 275 275 52 62 4 12 21 20 4 355 353 359 345 287 304 276 240 358 147 170 122 90 352 307 340 17 324 307 201 166 228 222 178 208 156 121 131 84 338 267 356 61 157 148 145 135 119 111 97 83 75 71 65 56 55 63
332 310 284 217 129 161 213 214 232 241 231 292 271 259 343 349 350 6 14 335 330 24 22 352 43 70 44 70 294 293 307 282 267 9 28 35 44 34 21 10 349 338 344 347 330 304 305 250 173 188 209 186 146 150 199 227 189 171 258 272 249 234 262 285 251 213 171 129 139 133 123 241 95 24 118 136 135 124 115 109 95 87 80 72 67 60 52 58
324 298 271 166 86 277 197 205 225 243 181 198 265 304 28 334 323 346 6 349 349 60 67 356 356 27 57 68 233 264 335 328 9 47 17 27 55 44 5 0 353 341 343 349 353 355 331 315 107 152 183 180 188 198 206 231 242 216 214 227 238 230 214 278 293 261 150 101 137 140 118 60 79 106 177 167 132 117 110 106 100 95 89 78 70 65 54 52
312 286 304 269 249 205 204 216 198 182 191 167 257 336 12 300 313 339 355 5 355 44 105 39 352 36 61 46 287 281 58 19 31 49 24 41 56 47 10 6 4 4 6 5 346 340 326 321 340 260 196 174 190 188 179 227 333 356 309 250 268 268 125 92 323 325 38 65 94 106 101 100 266 93 355 285 127 116 111 109 108 103 95 87 77 71 63 56
317 300 299 208 190 214 226 255 83 172 159 50 276 316 344 327 355 3 5 22 350 350 99 95 19 48 123 181 324 28 89 71 22 11 312 75 59 35 25 19 17 16 13 21 343 331 331 344 337 310 291 126 144 161 138 56 22 353 264 240 315 10 91 107 161 147 91 99 102 76 88 135 150 89 62 289 133 120 116 112 108 104 99 93 84 76 69 66
319 303 282 151 124 242 241 266 236 202 92 88 255 142 55 339 358 1 8 32 6 359 54 61 81 301 289 80 48 34 79 77 302 320 37 71 44 26 37 33 30 27 15 37 287 313 331 1 5 348 356 48 37 12 3 352 357 335 272 258 57 47 55 61 83 78 68 121 128 117 104 119 143 140 145 207 170 123 118 116 111 107 102 95 87 78 72 71
326 311 280 189 180 220 229 300 261 123 77 171 196 119 158 114 28 342 338 6 9 356 357 66 106 237 344 34 27 308 86 72 52 73 72 84 31 29 47 50 54 41 3 348 321 319 333 337 20 59 54 50 77 115 302 292 282 281 277 273 69 57 50 59 77 67 62 67 112 123 121 121 152 147 140 164 158 121 115 116 113 111 109 103 95 87 78 72
328 318 293 288 266 222 199 295 315 72 43 287 82 55 215 103 103 349 329 344 2 343 335 47 122 163 86 24 288 263 86 101 158 200 86 92 73 16 17 43 72 45 350 357 4 358 4 358 43 82 66 357 194 208 280 276 250 299 285 291 54 56 54 71 83 81 116 103 66 128 136 142 154 142 134 154 139 113 111 114 114 112 111 108 101 96 89 80
289 300 330 357 331 335 69 333 357 83 107 311 58 272 284 96 119 87 31 11 355 328 349 32 329 309 95 76 287 10 19 29 164 156 64 64 77 342 342 17 57 31 359 20 26 17 39 19 20 60 46 265 270 350 337 337 9 340 308 310 40 66 61 30 46 99 129 110 78 138 140 142 152 148 150 158 135 116 113 112 114 115 113 110 105 99 94 88
317 328 349 22 323 329 38 359 348 61 80 18 342 286 349 67 77 71 49 44 63 14 345 76 320 344 76 76 78 56 12 352 36 58 45 40 34 252 331 13 27 11 10 45 44 40 88 15 349 351 325 271 284 350 340 352 10 346 335 5 19 61 83 31 30 91 119 124 136 159 144 134 140 139 138 136 121 110 106 107 115 122 120 115 106 99 94 87
356 345 347 360 342 322 40 339 312 33 47 20 347 335 33 61 61 68 36 19 79 41 326 42 52 10 67 80 87 101 74 22 3 17 12 350 357 18 11 22 20 7 9 41 49 44 58 1 349 354 339 300 301 14 360 8 11 350 11 50 28 23 42 23 37 87 108 130 144 142 122 112 119 119 114 117 115 109 107 111 117 118 113 106 99 95 93 88
1 351 338 342 334 329 0 284 269 109 94 65 4 4 31 57 59 66 36 12 46 71 335 52 58 28 61 79 71 87 94 92 357 21 11 350 359 10 8 17 14 2 2 12 26 49 60 345 333 2 1 335 339 5 356 349 341 337 360 38 43 19 1 9 67 100 114 128 134 124 111 101 103 106 103 106 108 103 98 95 97 102 103 99 95 92 92 91
355 339 332 334 322 326 344 299 278 77 104 102 67 19 48 77 60 39 39 28 28 31 29 59 68 49 58 65 60 62 53 36 41 37 10 355 8 21 30 31 8 349 354 359 358 34 73 321 311 23 49 331 318 311 269 270 297 319 333 350 31 35 339 1 63 89 113 127 125 116 115 127 131 119 112 107 104 97 86 81 85 95 99 97 93 88 86 89
358 344 356 353 321 296 305 268 275 359 85 59 28 33 50 73 60 30 37 65 51 39 28 40 59 64 74 67 46 35 26 15 25 24 354 352 9 19 48 45 2 339 353 21 13 343 5 349 326 14 65 278 290 286 258 234 286 293 304 320 306 292 32 355 350 88 100 124 133 130 136 145 141 132 126 120 111 105 100 98 99 102 103 102 102 100 94 91
Height
1507 1506 1505 1504 1503 1502 1501 1500 1499 1498 1497 1497 1496 1496 1495 1495 1494 1493 1493 1492 1491 1491 1490 1490 1489 1489 1488 1488 1487 1486 1486 1485 1485 1485 1484 1483 1484 1486 1487 1489 1491 1492 1494 1495 1497 1498 1500 1501 1502 1503 1505 1506 1507 1507 1508 1509 1509 1511 1513 1517 1518 1517 1517 1511 1510 1509 1508 1511 1512 1514 1511 1509 1511 1510 1510 1513 1515 1513 1515 1519 1521 1525 1530 1532 1535 1539 1542 1544
1507 1506 1505 1504 1503 1501 1500 1499 1498 1497 1496 1496 1495 1495 1494 1494 1493 1493 1492 1491 1491 1490 1489 1489 1488 1488 1487 1487 1486 1485 1485 1484 1483 1482 1482 1482 1483 1484 1486 1488 1490 1491 1492 1494 1495 1496 1499 1500 1501 1503 1504 1504 1504 1505 1507 1508 1509 1511 1511 1516 1516 1512 1511 1506 1505 1504 1505 1509 1510 1511 1510 1509 1512 1511 1511 1514 1517 1515 1515 1519 1522 1526 1531 1535 1537 1540 1543 1545
1507 1506 1505 1504 1503 1501 1500 1499 1498 1497 1496 1495 1494 1494 1493 1493 1492 1491 1491 1490 1490 1489 1488 1487 1487 1487 1487 1486 1485 1484 1484 1483 1481 1479 1480 1481 1481 1482 1484 1486 1488 1490 1491 1493 1494 1496 1498 1499 1500 1502 1503 1502 1502 1504 1507 1508 1510 1510 1510 1515 1513 1507 1506 1505 1504 1503 1504 1507 1507 1510 1510 1510 1514 1515 1516 1516 1516 1516 1516 1518 1521 1525 1530 1534 1537 1540 1543 1546
1506 1505 1504 1503 1502 1501 1500 1498 1497 1496 1495 1494 1493 1492 1492 1492 1491 1490 1490 1489 1489 1488 1487 1487 1486 1486 1486 1486 1485 1484 1483 1482 1479 1479 1480 1480 1481 1482 1483 1485 1487 1489 1490 1492 1494 1495 1497 1499 1500 1501 1501 1500 1501 1503 1505 1506 1508 1508 1510 1514 1509 1506 1508 1506 1504 1504 1504 1505 1507 1509 1510 1513 1514 1516 1520 1520 1520 1518 1517 1518 1520 1524 1528 1533 1537 1540 1543 1545
1505 1504 1503 1501 1500 1499 1498 1497 1496 1495 1494 1493 1492 1492 1491 1490 1490 1489 1489 1488 1488 1487 1486 1486 1485 1485 1485 1485 1485 1484 1484 1484 1480 1479 1480 1480 1481 1482 1482 1484 1486 1488 1490 1492 1493 1494 1496 1498 1499 1499 1499 1499 1500 1503 1503 1503 1505 1506 1509 1510 1507 1507 1509 1507 1504 1504 1504 1505 1507 1508 1512 1515 1513 1516 1520 1520 1520 1518 1516 1519 1522 1525 1529 1532 1536 1540 1543 1546
1505 1504 1502 1501 1500 1498 1497 1496 1495 1494 1493 1492 1491 1491 1490 1489 1489 1488 1488 1487 1486 1486 1485 1485 1484 1484 1484 1484 1484 1484 1485 1483 1479 1479 1480 1480 1481 1481 1482 1483 1485 1487 1489 1491 1492 1493 1494 1496 1497 1497 1496 1496 1498 1499 1500 1501 1504 1508 1509 1507 1507 1507 1507 1507 1505 1505 1505 1505 1507 1508 1512 1514 1514 1517 1519 1518 1518 1516 1516 1521 1524 1528 1531 1534 1537 1540 1543 1546
1505 1503 1502 1501 1499 1498 1496 1495 1494 1493 1491 1490 1490 1489 1489 1488 1488 1487 1486 1486 1485 1485 1484 1484 1484 1483 1483 1484 1483 1484 1484 1480 1477 1478 1479 1479 1480 1481 1482 1483 1484 1486 1488 1489 1491 1492 1493 1494 1495 1494 1494 1495 1494 1494 1495 1498 1500 1505 1508 1506 1506 1507 1507 1507 1506 1505 1506 1507 1508 1509 1511 1513 1515 1519 1520 1519 1519 1518 1520 1523 1526 1530 1533 1536 1538 1541 1544 1546
1504 1503 1501 1500 1499 1497 1496 1495 1493 1492 1490 1489 1488 1488 1488 1487 1487 1486 1485 1485 1484 1484 1483 1483 1483 1483 1483 1483 1483 1483 1482 1478 1476 1478 1478 1479 1480 1480 1481 1482 1483 1485 1486 1488 1490 1491 1492 1493 1493 1492 1493 1493 1491 1491 1493 1497 1499 1500 1503 1504 1505 1507 1507 1506 1506 1506 1506 1508 1509 1510 1512 1514 1517 1519 1520 1519 1519 1520 1521 1525 1528 1532 1534 1537 1539 1542 1545 1547
1503 1502 1500 1499 1498 1496 1495 1493 1492 1491 1489 1488 1488 1487 1487 1486 1485 1485 1484 1484 1483 1483 1482 1482 1482 1482 1482 1483 1483 1483 1480 1476 1476 1477 1478 1479 1479 1480 1480 1481 1482 1484 1485 1488 1489 1490 1491 1492 1492 1491 1491 1490 1489 1490 1490 1495 1500 1495 1496 1502 1503 1505 1506 1506 1508 1507 1507 1509 1510 1511 1514 1515 1517 1518 1519 1518 1519 1520 1522 1526 1530 1532 1535 1538 1540 1543 1545 1547
1502 1500 1499 1498 1496 1495 1493 1492 1491 1490 1488 1488 1487 1486 1486 1485 1484 1484 1483 1483 1482 1482 1481 1481 1481 1481 1482 1482 1483 1482 1477 1475 1476 1477 1478 1478 1478 1478 1479 1480 1481 1483 1485 1487 1488 1488 1489 1490 1490 1490 1490 1489 1486 1487 1487 1490 1494 1491 1494 1498 1500 1504 1507 1507 1508 1508 1508 1510 1511 1512 1515 1516 1516 1519 1521 1518 1518 1521 1523 1527 1531 1533 1536 1538 1541 1543 1545 1547
1501 1500 1498 1497 1495 1494 1492 1491 1490 1488 1487 1487 1486 1485 1485 1484 1484 1483 1482 1482 1481 1481 1481 1481 1480 1481 1481 1481 1482 1480 1475 1475 1476 1476 1477 1476 1477 1477 1478 1480 1481 1483 1485 1486 1488 1488 1488 1488 1489 1489 1490 1488 1485 1483 1483 1484 1487 1490 1494 1498 1501 1505 1508 1508 1508 1509 1508 1511 1514 1511 1513 1515 1516 1521 1522 1518 1519 1521 1523 1527 1531 1533 1536 1539 1541 1543 1545 1547
1501 1499 1498 1496 1495 1493 1491 1490 1488 1487 1486 1486 1485 1484 1484 1483 1483 1482 1482 1481 1480 1480 1480 1480 1480 1480 1480 1481 1480 1476 1474 1475 1475 1475 1476 1475 1476 1477 1478 1480 1481 1483 1484 1486 1487 1487 1487 1488 1488 1489 1488 1487 1486 1485 1484 1482 1484 1490 1495 1502 1506 1506 1509 1510 1508 1509 1508 1512 1514 1511 1518 1521 1520 1523 1521 1518 1520 1521 1523 1528 1531 1533 1536 1539 1541 1543 1544 1546
1500 1499 1497 1495 1494 1492 1491 1489 1487 1486 1485 1485 1485 1484 1483 1482 1482 1481 1481 1480 1480 1480 1479 1479 1479 1480 1480 1479 1475 1473 1475 1476 1475 1475 1476 1475 1476 1477 1479 1481 1482 1484 1485 1486 1487 1488 1488 1488 1488 1488 1487 1487 1487 1486 1484 1482 1484 1491 1496 1503 1509 1513 1516 1513 1510 1509 1508 1513 1513 1513 1529 1532 1521 1521 1521 1520 1521 1521 1524 1527 1530 1533 1535 1538 1540 1542 1544 1546
1500 1498 1496 1495 1493 1491 1490 1488 1487 1485 1485 1484 1484 1483 1482 1482 1481 1481 1480 1480 1480 1479 1479 1479 1480 1480 1480 1476 1472 1473 1474 1475 1476 1476 1476 1476 1476 1478 1480 1482 1483 1484 1485 1486 1486 1487 1488 1488 1488 1488 1487 1487 1486 1485 1484 1481 1482 1488 1497 1502 1507 1518 1521 1512 1508 1510 1512 1516 1513 1515 1532 1534 1521 1518 1520 1521 1522 1521 1524 1527 1529 1532 1534 1537 1539 1541 1543 1545
1499 1498 1496 1494 1492 1490 1489 1487 1486 1484 1484 1484 1483 1482 1482 1481 1481 1480 1481 1480 1479 1479 1479 1479 1479 1480 1479 1475 1472 1473 1474 1475 1476 1476 1476 1477 1477 1479 1480 1482 1484 1484 1485 1486 1485 1486 1488 1488 1488 1487 1487 1487 1487 1488 1488 1485 1482 1484 1499 1510 1509 1517 1522 1512 1507 1508 1513 1516 1513 1517 1529 1531 1522 1518 1520 1520 1521 1522 1523 1526 1528 1531 1533 1537 1539 1540 1543 1545
1499 1497 1495 1493 1491 1490 1488 1486 1485 1484 1484 1483 1482 1482 1481 1481 1480 1480 1480 1480 1480 1480 1479 1480 1480 1480 1479 1475 1472 1473 1474 1474 1475 1476 1476 1476 1478 1479 1480 1483 1484 1485 1485 1486 1486 1486 1487 1487 1487 1487 1487 1488 1488 1491 1493 1493 1490 1485 1495 1511 1514 1517 1522 1517 1511 1508 1510 1514 1515 1518 1525 1529 1523 1518 1521 1522 1521 1522 1523 1525 1527 1530 1533 1536 1539 1540 1542 1544
1498 1496 1495 1493 1491 1489 1487 1485 1484 1483 1483 1482 1482 1481 1481 1481 1480 1480 1480 1480 1480 1479 1480 1480 1480 1481 1477 1472 1472 1472 1472 1473 1474 1475 1476 1476 1478 1478 1480 1482 1483 1485 1485 1486 1487 1486 1486 1486 1487 1488 1487 1488 1488 1490 1500 1504 1500 1491 1492 1506 1512 1514 1519 1519 1516 1511 1509 1514 1518 1518 1521 1526 1523 1518 1521 1523 1521 1522 1522 1524 1526 1528 1532 1535 1538 1539 1541 1544
1497 1496 1494 1492 1490 1488 1486 1484 1483 1483 1483 1482 1481 1481 1481 1480 1480 1480 1480 1480 1480 1479 1480 1480 1481 1483 1477 1469 1468 1469 1469 1472 1473 1474 1475 1476 1478 1478 1480 1481 1482 1484 1484 1486 1486 1485 1487 1485 1486 1490 1489 1490 1490 1492 1503 1503 1495 1493 1499 1511 1514 1513 1517 1518 1515 1511 1508 1512 1518 1521 1523 1525 1525 1523 1524 1523 1521 1522 1522 1523 1526 1528 1531 1534 1537 1538 1541 1543
1496 1495 1493 1491 1489 1487 1485 1484 1483 1483 1482 1482 1481 1481 1480 1480 1480 1480 1480 1480 1479 1479 1479 1477 1476 1478 1473 1465 1465 1467 1469 1471 1472 1474 1475 1475 1477 1478 1479 1481 1482 1483 1484 1486 1486 1485 1486 1487 1490 1494 1493 1492 1491 1490 1493 1488 1484 1491 1499 1510 1518 1518 1520 1517 1510 1506 1507 1512 1518 1523 1526 1525 1527 1527 1524 1523 1521 1522 1523 1523 1525 1528 1529 1533 1536 1537 1540 1542
1496 1494 1493 1491 1488 1487 1485 1483 1483 1482 1482 1482 1481 1480 1480 1479 1479 1480 1480 1479 1477 1475 1474 1473 1472 1470 1466 1464 1466 1468 1470 1472 1472 1473 1474 1475 1476 1477 1478 1481 1481 1482 1484 1485 1486 1484 1484 1491 1495 1495 1493 1489 1486 1483 1481 1478 1480 1489 1494 1504 1515 1517 1519 1514 1508 1506 1505 1512 1519 1521 1526 1525 1524 1525 1522 1521 1522 1522 1523 1523 1525 1527 1529 1532 1534 1536 1539 1542
1496 1495 1493 1490 1488 1487 1485 1484 1483 1483 1483 1482 1481 1481 1480 1479 1479 1480 1479 1476 1474 1472 1471 1471 1471 1468 1464 1464 1467 1468 1469 1471 1472 1473 1474 1474 1475 1476 1478 1479 1481 1483 1483 1482 1483 1482 1485 1493 1493 1489 1486 1483 1480 1477 1476 1477 1479 1486 1493 1502 1510 1513 1514 1508 1504 1506 1503 1510 1518 1517 1525 1527 1521 1523 1522 1520 1522 1522 1522 1523 1525 1526 1528 1531 1533 1535 1538 1541
1496 1495 1492 1491 1489 1487 1486 1484 1484 1483 1483 1482 1482 1481 1480 1480 1481 1480 1479 1475 1472 1471 1470 1469 1468 1467 1463 1463 1465 1467 1469 1470 1471 1472 1472 1473 1474 1476 1476 1477 1481 1483 1482 1480 1482 1485 1489 1492 1487 1481 1479 1478 1477 1475 1475 1476 1477 1484 1492 1501 1508 1511 1516 1511 1503 1504 1503 1510 1517 1517 1525 1529 1523 1522 1521 1519 1522 1522 1523 1523 1524 1526 1527 1530 1532 1534 1537 1540
1496 1494 1493 1491 1489 1488 1486 1485 1484 1483 1483 1483 1482 1482 1481 1480 1480 1480 1479 1476 1472 1469 1468 1467 1466 1465 1464 1463 1463 1465 1468 1469 1470 1471 1471 1473 1473 1474 1475 1477 1480 1480 1480 1482 1483 1488 1492 1488 1480 1475 1475 1476 1478 1475 1475 1476 1478 1482 1488 1500 1507 1507 1516 1518 1508 1506 1505 1507 1514 1517 1525 1530 1527 1525 1522 1523 1523 1522 1525 1525 1523 1525 1527 1529 1532 1533 1536 1538
1496 1494 1493 1491 1489 1488 1486 1485 1485 1484 1484 1483 1482 1482 1480 1480 1480 1480 1478 1476 1471 1467 1465 1465 1464 1464 1464 1463 1464 1465 1467 1468 1468 1469 1470 1472 1472 1473 1474 1474 1477 1479 1479 1479 1480 1484 1484 1477 1471 1472 1473 1475 1478 1477 1475 1479 1481 1479 1480 1491 1499 1499 1507 1511 1505 1505 1506 1508 1511 1517 1532 1536 1529 1529 1528 1526 1525 1525 1528 1527 1524 1526 1526 1528 1531 1533 1535 1537
1496 1495 1493 1491 1490 1488 1486 1485 1484 1484 1484 1482 1482 1481 1480 1480 1480 1480 1478 1477 1473 1465 1462 1463 1463 1464 1463 1464 1465 1464 1465 1466 1465 1467 1469 1470 1470 1472 1472 1471 1475 1479 1477 1476 1477 1480 1477 1468 1466 1471 1473 1473 1476 1477 1475 1478 1482 1480 1476 1479 1486 1492 1499 1504 1503 1507 1518 1525 1516 1514 1538 1547 1533 1529 1531 1528 1528 1530 1531 1527 1526 1527 1527 1528 1531 1533 1536 1537
1496 1494 1492 1492 1490 1488 1487 1485 1483 1485 1483 1482 1481 1481 1481 1480 1480 1480 1479 1482 1479 1466 1461 1463 1463 1464 1463 1463 1464 1464 1467 1465 1463 1465 1467 1469 1469 1469 1471 1470 1470 1474 1473 1471 1474 1475 1471 1464 1462 1468 1472 1472 1475 1476 1471 1471 1480 1483 1473 1469 1476 1484 1494 1501 1502 1508 1522 1526 1511 1504 1529 1549 1542 1533 1531 1531 1533 1533 1530 1527 1527 1528 1528 1529 1531 1533 1535 1536
1495 1494 1492 1491 1490 1488 1487 1484 1484 1484 1482 1482 1481 1481 1482 1480 1480 1479 1480 1490 1485 1465 1462 1464 1462 1463 1462 1462 1463 1466 1470 1465 1461 1465 1465 1468 1469 1467 1471 1470 1468 1471 1465 1467 1476 1473 1466 1464 1463 1465 1469 1473 1475 1475 1468 1465 1478 1482 1467 1465 1474 1481 1492 1498 1497 1504 1507 1504 1505 1503 1512 1536 1546 1539 1533 1533 1535 1533 1529 1527 1527 1528 1528 1529 1530 1532 1534 1535
1495 1494 1492 1491 1490 1489 1487 1485 1485 1483 1483 1483 1481 1481 1481 1479 1481 1478 1485 1500 1486 1461 1461 1463 1461 1463 1462 1462 1463 1463 1466 1462 1462 1466 1464 1467 1468 1466 1470 1468 1468 1469 1462 1468 1480 1470 1461 1465 1464 1463 1468 1473 1472 1469 1462 1461 1472 1472 1461 1463 1470 1476 1490 1493 1494 1502 1498 1501 1518 1512 1505 1531 1548 1540 1534 1534 1535 1535 1531 1527 1527 1527 1528 1529 1530 1531 1532 1534
1495 1493 1492 1491 1490 1489 1488 1486 1485 1483 1483 1482 1481 1481 1479 1480 1480 1476 1489 1500 1478 1459 1463 1462 1461 1463 1461 1462 1463 1461 1461 1460 1463 1465 1463 1466 1467 1466 1469 1466 1466 1468 1462 1465 1472 1465 1458 1459 1458 1458 1465 1468 1464 1459 1456 1460 1468 1463 1458 1463 1466 1473 1485 1490 1496 1503 1501 1512 1527 1513 1501 1529 1550 1541 1534 1536 1534 1533 1530 1527 1526 1526 1527 1528 1529 1529 1531 1534
1494 1493 1492 1491 1490 1488 1487 1486 1485 1484 1483 1482 1482 1481 1479 1480 1480 1486 1499 1494 1471 1462 1463 1462 1463 1463 1461 1463 1464 1462 1460 1460 1461 1463 1463 1466 1466 1466 1468 1466 1465 1467 1466 1463 1463 1459 1453 1452 1453 1454 1458 1458 1456 1456 1455 1457 1461 1459 1461 1468 1471 1476 1482 1490 1492 1493 1507 1521 1519 1506 1497 1515 1543 1542 1532 1530 1527 1524 1526 1527 1526 1525 1526 1527 1527 1528 1530 1533
1493 1492 1491 1490 1489 1488 1487 1486 1485 1484 1483 1483 1482 1479 1481 1479 1480 1495 1501 1481 1468 1467 1463 1462 1463 1461 1462 1465 1466 1464 1461 1460 1461 1463 1466 1466 1467 1468 1468 1469 1468 1470 1472 1467 1463 1458 1453 1455 1454 1450 1451 1452 1455 1459 1457 1455 1456 1459 1466 1472 1480 1484 1485 1494 1493 1493 1516 1522 1505 1499 1497 1507 1535 1540 1526 1522 1519 1518 1523 1525 1524 1525 1526 1526 1526 1528 1529 1531
1493 1492 1490 1489 1489 1487 1487 1485 1484 1484 1483 1482 1481 1479 1482 1486 1489 1495 1489 1474 1474 1473 1462 1460 1461 1460 1463 1464 1464 1464 1462 1463 1463 1464 1467 1468 1470 1469 1470 1473 1472 1477 1482 1473 1467 1464 1459 1457 1453 1450 1452 1451 1458 1465 1464 1461 1459 1464 1470 1475 1489 1499 1500 1510 1509 1507 1519 1512 1494 1493 1500 1516 1534 1529 1520 1519 1518 1519 1521 1520 1520 1522 1525 1526 1526 1527 1529 1530
1492 1490 1489 1489 1488 1487 1486 1485 1484 1484 1483 1482 1482 1478 1482 1497 1499 1488 1478 1474 1474 1468 1457 1457 1458 1459 1463 1464 1464 1462 1462 1464 1462 1463 1465 1466 1471 1470 1468 1468 1465 1473 1480 1472 1469 1470 1467 1460 1453 1456 1458 1453 1459 1469 1474 1472 1467 1471 1475 1478 1492 1504 1515 1526 1521 1516 1517 1505 1491 1489 1503 1530 1537 1523 1517 1517 1516 1519 1520 1520 1519 1519 1522 1525 1525 1527 1529 1530
1491 1489 1489 1488 1487 1487 1486 1485 1484 1483 1483 1483 1483 1482 1489 1503 1498 1481 1475 1470 1464 1459 1456 1455 1457 1460 1463 1464 1463 1459 1462 1464 1460 1462 1465 1466 1472 1473 1469 1467 1462 1465 1471 1469 1469 1471 1477 1476 1461 1459 1462 1457 1459 1464 1470 1471 1468 1470 1467 1470 1484 1492 1507 1521 1517 1516 1514 1502 1495 1496 1513 1536 1536 1523 1516 1513 1514 1518 1520 1522 1522 1521 1522 1524 1525 1526 1528 1530
1490 1489 1488 1486 1486 1486 1485 1485 1484 1483 1485 1483 1483 1489 1496 1500 1491 1477 1473 1467 1460 1458 1456 1453 1457 1462 1464 1463 1459 1455 1459 1463 1459 1461 1465 1466 1471 1472 1469 1467 1462 1462 1469 1475 1473 1467 1474 1475 1459 1454 1457 1456 1460 1460 1460 1466 1472 1470 1461 1469 1481 1478 1484 1496 1496 1496 1495 1498 1509 1513 1521 1528 1523 1521 1518 1514 1518 1518 1519 1522 1522 1523 1524 1523 1526 1527 1529 1531
1490 1488 1487 1485 1484 1485 1485 1486 1484 1484 1485 1483 1487 1494 1493 1488 1483 1474 1468 1465 1463 1461 1460 1459 1460 1465 1467 1463 1461 1457 1457 1462 1462 1463 1465 1465 1468 1469 1467 1465 1461 1461 1469 1477 1478 1473 1477 1473 1455 1454 1458 1455 1458 1459 1456 1465 1475 1472 1469 1476 1474 1463 1470 1485 1489 1483 1483 1507 1527 1524 1529 1533 1528 1532 1530 1522 1521 1518 1519 1521 1521 1524 1524 1524 1528 1530 1532 1532
1490 1488 1486 1484 1483 1484 1485 1485 1485 1485 1485 1484 1490 1494 1484 1476 1476 1471 1465 1464 1463 1461 1463 1466 1464 1466 1468 1466 1466 1463 1461 1463 1464 1466 1466 1465 1469 1470 1467 1465 1462 1462 1466 1471 1475 1474 1479 1477 1458 1455 1463 1458 1455 1459 1456 1456 1465 1473 1478 1477 1466 1460 1466 1479 1493 1493 1491 1517 1532 1521 1527 1535 1535 1540 1535 1524 1522 1519 1518 1519 1520 1523 1525 1526 1529 1530 1532 1531
1489 1487 1485 1482 1481 1483 1484 1485 1485 1485 1484 1485 1489 1488 1478 1473 1472 1468 1466 1466 1464 1462 1465 1469 1468 1468 1469 1471 1471 1466 1465 1469 1468 1467 1467 1467 1472 1473 1469 1468 1467 1465 1465 1468 1474 1471 1473 1481 1467 1455 1462 1460 1454 1462 1466 1459 1458 1468 1473 1469 1469 1480 1484 1482 1493 1499 1500 1522 1538 1533 1532 1531 1530 1534 1528 1521 1521 1518 1518 1519 1520 1523 1525 1527 1529 1529 1531 1532
1488 1488 1485 1481 1480 1483 1483 1484 1484 1483 1484 1487 1488 1485 1477 1472 1470 1468 1468 1468 1466 1466 1470 1472 1472 1472 1473 1476 1477 1471 1469 1472 1470 1469 1471 1474 1477 1475 1472 1473 1472 1470 1468 1469 1475 1473 1471 1483 1480 1462 1459 1462 1461 1468 1476 1472 1465 1465 1469 1468 1470 1480 1485 1481 1484 1487 1495 1518 1540 1549 1550 1540 1534 1531 1523 1520 1519 1516 1519 1521 1521 1524 1526 1528 1530 1530 1532 1533
1488 1487 1484 1480 1481 1482 1483 1484 1483 1483 1485 1487 1486 1482 1476 1473 1471 1469 1470 1469 1468 1470 1474 1474 1473 1475 1476 1478 1481 1478 1473 1472 1469 1472 1476 1477 1481 1480 1476 1476 1476 1474 1472 1471 1474 1474 1470 1477 1482 1470 1462 1467 1472 1473 1475 1476 1474 1474 1478 1479 1476 1475 1475 1477 1478 1473 1481 1508 1532 1546 1553 1544 1534 1530 1527 1522 1519 1517 1519 1521 1523 1526 1528 1529 1531 1531 1533 1534
1488 1487 1483 1480 1481 1481 1482 1483 1482 1482 1483 1484 1482 1478 1476 1476 1474 1471 1470 1470 1469 1471 1474 1475 1474 1475 1477 1480 1482 1480 1479 1478 1474 1476 1480 1479 1484 1487 1482 1479 1479 1476 1475 1475 1476 1477 1476 1476 1478 1475 1471 1474 1475 1468 1466 1469 1472 1475 1478 1478 1477 1476 1476 1485 1490 1475 1473 1497 1516 1528 1546 1546 1531 1528 1530 1525 1519 1518 1519 1521 1524 1527 1529 1531 1533 1533 1534 1535
1488 1486 1482 1480 1481 1481 1481 1481 1479 1479 1480 1482 1481 1478 1477 1477 1475 1473 1472 1472 1472 1472 1473 1476 1476 1476 1478 1481 1481 1479 1483 1486 1482 1483 1485 1483 1485 1488 1484 1481 1481 1478 1478 1482 1481 1477 1476 1476 1478 1478 1474 1472 1469 1463 1463 1466 1466 1469 1473 1472 1472 1473 1476 1489 1501 1492 1489 1501 1504 1512 1538 1546 1531 1527 1530 1527 1522 1520 1522 1523 1525 1528 1530 1533 1534 1535 1537 1536
1487 1484 1481 1480 1480 1480 1481 1480 1478 1478 1478 1479 1478 1478 1478 1477 1476 1475 1474 1475 1475 1474 1475 1477 1477 1479 1480 1479 1480 1480 1483 1488 1488 1485 1485 1485 1485 1486 1484 1483 1482 1480 1480 1486 1485 1477 1475 1480 1484 1482 1472 1466 1464 1462 1461 1464 1467 1471 1473 1469 1471 1475 1474 1480 1489 1490 1498 1510 1509 1519 1542 1545 1532 1529 1530 1528 1525 1522 1524 1526 1526 1529 1532 1533 1535 1536 1538 1538
1485 1482 1480 1480 1480 1479 1480 1481 1480 1478 1478 1478 1478 1478 1479 1479 1478 1478 1477 1477 1477 1475 1477 1478 1478 1480 1478 1476 1480 1481 1483 1489 1490 1485 1484 1486 1487 1486 1484 1483 1484 1483 1484 1488 1487 1481 1482 1486 1489 1491 1488 1483 1482 1480 1476 1472 1473 1477 1475 1470 1470 1472 1472 1476 1481 1486 1500 1508 1508 1524 1545 1541 1530 1530 1530 1530 1529 1525 1525 1528 1529 1531 1533 1535 1536 1537 1539 1541
1484 1481 1478 1478 1478 1477 1477 1477 1476 1477 1478 1479 1479 1479 1479 1480 1481 1481 1480 1479 1478 1477 1478 1479 1479 1479 1478 1479 1482 1482 1481 1486 1489 1487 1485 1487 1487 1486 1486 1485 1485 1485 1485 1487 1484 1481 1485 1487 1488 1498 1507 1509 1507 1502 1494 1485 1479 1478 1475 1471 1471 1472 1476 1482 1487 1496 1508 1508 1505 1519 1536 1535 1528 1528 1531 1532 1530 1527 1526 1529 1531 1533 1534 1536 1537 1539 1542 1543
1487 1484 1480 1477 1476 1475 1476 1474 1473 1476 1479 1480 1481 1480 1479 1481 1481 1481 1481 1480 1480 1479 1479 1479 1479 1479 1481 1484 1485 1484 1482 1484 1488 1488 1487 1488 1488 1486 1485 1486 1486 1486 1485 1484 1482 1480 1484 1486 1486 1493 1501 1504 1502 1496 1488 1482 1482 1482 1478 1473 1474 1476 1478 1483 1491 1501 1506 1509 1513 1516 1520 1527 1529 1529 1532 1531 1527 1526 1526 1528 1531 1534 1536 1537 1538 1541 1544 1545
1489 1486 1481 1479 1478 1476 1476 1475 1473 1476 1479 1480 1482 1481 1479 1480 1481 1481 1482 1481 1481 1480 1480 1481 1480 1480 1484 1487 1488 1488 1487 1485 1486 1488 1487 1488 1487 1485 1484 1484 1484 1485 1484 1483 1482 1482 1488 1492 1489 1488 1491 1490 1487 1486 1482 1480 1482 1482 1479 1476 1477 1478 1481 1485 1493 1499 1500 1512 1526 1519 1511 1521 1526 1524 1528 1528 1524 1525 1526 1528 1532 1534 1537 1539 1539 1541 1544 1546
1489 1486 1482 1483 1483 1480 1479 1479 1477 1477 1478 1480 1482 1481 1479 1481 1482 1484 1484 1482 1482 1482 1483 1484 1483 1482 1484 1488 1491 1495 1496 1494 1490 1489 1490 1490 1488 1487 1485 1483 1483 1484 1483 1484 1485 1485 1492 1498 1492 1489 1490 1486 1482 1483 1482 1481 1483 1482 1480 1481 1480 1480 1484 1487 1491 1493 1495 1508 1521 1517 1512 1518 1520 1519 1523 1523 1522 1524 1526 1529 1532 1534 1537 1539 1540 1542 1544 1546
1490 1488 1484 1484 1484 1482 1481 1482 1479 1479 1481 1483 1483 1482 1482 1483 1484 1485 1485 1484 1484 1485 1484 1486 1486 1484 1484 1486 1490 1496 1501 1502 1499 1495 1492 1492 1490 1490 1490 1489 1486 1485 1484 1486 1487 1487 1493 1497 1493 1492 1494 1489 1484 1484 1484 1485 1487 1485 1483 1484 1484 1484 1486 1487 1490 1492 1494 1501 1507 1508 1513 1519 1519 1518 1520 1520 1522 1524 1526 1530 1533 1535 1537 1539 1540 1543 1545 1547
1494 1493 1490 1487 1486 1483 1482 1481 1480 1481 1483 1484 1486 1484 1483 1485 1487 1487 1486 1487 1488 1487 1485 1487 1488 1486 1486 1487 1489 1494 1497 1498 1499 1496 1494 1495 1495 1494 1494 1495 1493 1490 1488 1489 1489 1490 1495 1498 1493 1493 1499 1496 1487 1485 1487 1489 1490 1490 1488 1487 1487 1489 1490 1489 1491 1493 1496 1502 1504 1507 1518 1526 1522 1518 1519 1521 1523 1525 1529 1532 1534 1536 1538 1539 1541 1544 1547 1549
1496 1496 1495 1493 1489 1484 1483 1482 1479 1481 1484 1485 1486 1486 1485 1487 1488 1488 1488 1488 1489 1489 1487 1488 1489 1489 1489 1490 1492 1495 1495 1494 1495 1495 1494 1495 1496 1495 1495 1495 1495 1495 1494 1493 1494 1493 1496 1500 1494 1494 1505 1505 1492 1489 1491 1489 1490 1494 1493 1491 1491 1493 1493 1492 1492 1493 1497 1503 1507 1513 1523 1528 1522 1518 1520 1523 1524 1527 1531 1534 1535 1538 1540 1541 1543 1546 1549 1551
1495 1495 1494 1494 1492 1486 1484 1482 1480 1483 1487 1487 1486 1486 1486 1488 1488 1490 1492 1491 1490 1490 1490 1489 1491 1492 1494 1497 1497 1497 1497 1496 1496 1496 1496 1495 1495 1494 1496 1496 1496 1497 1497 1497 1498 1496 1497 1501 1500 1500 1509 1507 1496 1493 1491 1491 1501 1505 1498 1493 1493 1492 1494 1494 1492 1493 1495 1499 1507 1516 1520 1519 1516 1517 1521 1524 1526 1529 1533 1535 1538 1540 1542 1544 1546 1547 1550 1553